Location: Corcelles
(46.1547°N, 4.7234°E)
Time: 04:06:00
(UTC+00:00)

Cosmos 1833 Rocket - Pass Details

Date: 14 July 2020
Orbit: 832 x 840 km, 71.0° (Epoch: 06 August)

Event Time Altitude Azimuth Distance (km) Brightness Sun altitude
Exits shadow 00:45:02 21° 137° (SE) 1,795 4.1 -20.9°
Maximum altitude 00:47:10 27° 103° (ESE) 1,570 4.1 -20.9°
Drops below altitude 10° 00:51:46 10° 48° (NE) 2,451 5.9 -20.6°
Sets 00:54:32 0° 36° (NE) 3,391 7.1 -20.5°
